Content
SEND FEEDBACK

Daily
Averages
Monthly
Summary
United States of America

BOSTON, MASSACHUSETTS


Home > North America > United States > Massachusetts
Elevation: 1 meter     Latitude: 42 22N     Longitude: 071 02W

WEATHER
 
SELECT A DAY
Number of Records: 204,732;   Date Range: 1/1/95 - 9/29/14
 
SHARE

PRINT THIS DATA

[ ← Previous Day ]
WEATHER ALMANAC - 8 OCTOBER, 2013
[ Next Day → ]
[ °F ]   °C
Weather ElementAverageHighLow
Temperature15.7 °C19.4 °C (3:54 pm)11.7 °C (11:54 pm)
Dewpoint4.7 °C9.4 °C (1:54 am)2.2 °C (4:54 pm)
Humidity49.3 %65 % (3:54 am)33 % (4:54 pm)
Barometer1022 hPa1028.8 hPa (11:54 pm)1014.2 hPa (1:54 am)
Wind Speed17.2 km/h27.8 km/h (8:54 am)
Wind Gust37 km/h (8:54 am)
Weather ElementAverage
Visibility16.1 km
Wind DirectionWNW (281.3 °)

Weather ElementTotal
Precipitation---
Heating Degree Days2.8 (Base 18.3)
Growing Degree Days5.6 (Base 10)
Averaged from 23 records on 8 October, 2013
WEATHER CONDITIONS BREAKOUT
WIND DIRECTION BREAKOUT
WEATHER BY HOUR - 8 OCTOBER, 2013
[ °F ]   °C
Local TimeTemperatureDewpointHumidityBarometerVisibilityWind DirectionWind SpeedGust SpeedPrecipitationEventsConditions
1:54 AM16.1 °C9.4 °C64 %1014.2 hPa16.1 kmWNW (290°)22.2 km/h33.3 km/hMostly Cloudy
2:54 AM15.6 °C8.3 °C62 %1014.6 hPa16.1 kmWNW (290°)22.2 km/hMostly Cloudy
3:54 AM14.4 °C7.8 °C65 %1015.9 hPa16.1 kmWNW (290°)18.5 km/hScattered Clouds
4:54 AM13.9 °C7.2 °C64 %1016.3 hPa16.1 kmWNW (290°)24.1 km/hMostly Cloudy
5:54 AM13.9 °C6.7 °C62 %1017.3 hPa16.1 kmWest (280°)20.4 km/hScattered Clouds
6:54 AM13.3 °C6.7 °C64 %1018.6 hPa16.1 kmWNW (290°)20.4 km/hScattered Clouds
7:54 AM13.9 °C6.7 °C62 %1020 hPa16.1 kmWNW (300°)14.8 km/h29.6 km/hScattered Clouds
8:54 AM15 °C5.6 °C53 %1021 hPa16.1 kmNW (310°)27.8 km/h37 km/hScattered Clouds
9:54 AM16.1 °C5.6 °C50 %1022 hPa16.1 kmNW (320°)20.4 km/hPartly Cloudy
10:54 AM16.7 °C4.4 °C44 %1022.4 hPa16.1 kmNW (310°)18.5 km/hScattered Clouds
11:54 AM17.8 °C4.4 °C41 %1022.7 hPa16.1 kmNNW (340°)18.5 km/h37 km/hPartly Cloudy
12:54 PM18.9 °C4.4 °C38 %1022.7 hPa16.1 kmNorth (350°)18.5 km/h27.8 km/hPartly Cloudy
1:54 PM18.9 °C3.3 °C36 %1022.4 hPa16.1 kmNW (320°)20.4 km/hPartly Cloudy
2:54 PM18.9 °C2.8 °C34 %1023 hPa16.1 kmNorth (350°)13 km/hScattered Clouds
3:54 PM19.4 °C3.3 °C34 %1023.4 hPa16.1 kmVariable11.1 km/hScattered Clouds
4:54 PM18.9 °C2.2 °C33 %1024.4 hPa16.1 kmNW (320°)18.5 km/hMostly Cloudy
5:54 PM17.2 °C2.2 °C37 %1025.1 hPa16.1 kmNorth (360°)13 km/hMostly Cloudy
6:54 PM15.6 °C2.8 °C42 %1025.7 hPa16.1 kmNorth (10°)13 km/hScattered Clouds
7:54 PM15 °C3.3 °C46 %1026.1 hPa16.1 kmNorth (360°)13 km/hPartly Cloudy
8:54 PM14.4 °C2.8 °C46 %1027.1 hPa16.1 kmNorth (360°)11.1 km/hClear
9:54 PM13.3 °C2.8 °C49 %1027.4 hPa16.1 kmNorth (350°)11.1 km/hClear
10:54 PM12.8 °C2.8 °C51 %1028.1 hPa16.1 kmNorth (360°)11.1 km/hClear
11:54 PM11.7 °C3.3 °C57 %1028.8 hPa16.1 kmNNE (20°)14.8 km/hClear
Hourly data recorded from KBOS, located 0 kilometers away from Boston, Massachusetts







STORIES FROM OUR PARTNERS